"Time","Temp","Dewpoint","Humidity","Pressure","Direction","Speed","Gust","Precip","PrecipRate"
"00:04:56","37.3","36.5","97","29.72","162","0.1","2.4","0.00","0.00"
"00:09:56","37.2","36.4","97","29.72","162","0.7","2.4","0.00","0.00"
"00:14:57","37","36.2","97","29.72","162","0","1.2","0.00","0.00"
"00:19:56","36.7","35.9","97","29.72","162","0.1","1.2","0.00","0.00"
"00:24:56","36.4","35.6","97","29.72","163","0","0","0.00","0.00"
"00:29:56","36.3","35.5","97","29.72","163","0","0","0.00","0.00"
"00:34:56","36.1","35.3","97","29.72","163","0","1.2","0.00","0.00"
"00:39:56","35.9","35.1","97","29.72","163","0.3","1.2","0.00","0.00"
"00:44:56","35.7","34.9","97","29.72","163","0","0","0.00","0.00"
"00:49:56","35.7","34.9","97","29.72","163","0","0","0.00","0.00"
"00:54:59","35.5","34.7","97","29.72","163","0","0","0.00","0.00"
"00:59:59","35.4","34.6","97","29.73","163","0","0","0.00","0.00"
"01:04:56","35.5","34.7","97","29.73","163","0","0","0.00","0.00"
"01:09:59","35.2","34.4","97","29.73","163","0","0","0.00","0.00"
"01:14:59","34.8","34","96.7","29.73","163","0","0","0.00","0.00"
"01:19:59","34.6","33.8","96.8","29.73","163","0","0","0.00","0.00"
"01:24:58","34.6","33.8","97","29.73","153","1.1","3.6","0.00","0.00"
"01:29:58","34.6","33.8","97","29.73","124","1.2","2.4","0.00","0.00"
"01:34:57","34.6","33.8","97","29.73","122","0","0","0.00","0.00"
"01:39:57","34.4","33.6","97","29.73","122","0","1.2","0.00","0.00"
"01:44:59","34","33.1","96.5","29.73","122","0.3","1.2","0.00","0.00"
"01:49:58","33.8","33","97","29.73","122","0.1","1.2","0.00","0.00"
"01:54:57","33.8","33","97","29.73","122","0","0","0.00","0.00"
"01:59:56","33.7","32.9","97","29.73","122","0","0","0.00","0.00"
"02:04:56","33.5","32.7","97","29.73","122","0","0","0.00","0.00"
"02:09:59","33.5","32.7","97","29.73","121","0.9","2.4","0.00","0.00"
"02:14:58","33.5","32.7","97","29.73","121","0.1","1.2","0.00","0.00"
"02:19:57","33.5","32.7","97","29.73","120","1.7","2.4","0.00","0.00"
"02:24:57","33.5","32.7","97","29.73","120","0.8","2.4","0.00","0.00"
"02:29:56","33.4","32.6","97","29.74","120","0.1","1.2","0.00","0.00"
"02:34:59","33.3","32.5","97","29.74","120","0.1","1.2","0.00","0.00"
"02:39:56","33.1","32.3","97","29.74","120","0.5","2.4","0.00","0.00"
"02:44:57","33.1","32.3","97","29.74","117","1.4","2.4","0.00","0.00"
"02:49:58","33.2","32.4","97","29.74","83","1.2","4.8","0.00","0.00"
"02:54:57","33.2","32.4","97","29.74","5","1.4","4.8","0.00","0.00"
"02:59:56","33.5","32.7","97","29.75","6","1.7","4.6","0.00","0.00"
"03:04:54","33.8","33","97","29.75","8","1.4","4.8","0.00","0.00"
"03:09:57","33.7","32.9","97","29.75","10","0.2","1.2","0.00","0.00"
"03:14:57","33.7","32.9","97","29.76","10","0.5","2.4","0.00","0.00"
"03:19:56","33.8","33","97","29.76","10","1.9","3.6","0.00","0.00"
"03:24:56","33.9","33.1","97","29.76","271","0.8","3.6","0.00","0.00"
"03:29:59","33.7","32.9","97","29.76","255","0.2","2.4","0.00","0.00"
"03:34:59","33.8","33","97","29.76","269","1.1","3.6","0.00","0.00"
"03:39:59","34.1","33.3","97.2","29.76","291","1.3","3.6","0.00","0.00"
"03:44:59","34.4","33.7","97.2","29.76","261","1.1","3.5","0.00","0.00"
"03:49:58","34.5","33.7","97","29.76","230","0.7","2.4","0.00","0.00"
"03:54:57","34.5","33.7","97","29.76","230","0.7","2.4","0.00","0.00"
"03:59:57","34.7","33.9","97","29.77","248","0.6","3.6","0.00","0.00"
"04:04:57","34.6","33.9","97.1","29.77","250","0.8","3.5","0.00","0.00"
"04:09:56","34.7","33.9","97.2","29.77","250","0.3","3.6","0.00","0.00"
"04:14:59","34.7","34.1","97.8","29.77","295","1.1","4.8","0.00","0.00"
"04:19:59","34.6","33.9","97.2","29.77","296","0","0","0.00","0.00"
"04:24:56","34.4","33.6","97","29.77","296","0","0","0.00","0.00"
"04:29:59","34.2","33.4","97","29.78","296","0.1","1.2","0.00","0.00"
"04:34:57","34.2","33.4","97","29.78","296","0.4","2.4","0.00","0.00"
"04:39:58","34.3","33.5","97","29.78","253","1","2.4","0.00","0.00"
"04:44:59","34.1","33.3","97","29.78","213","0.9","3.6","0.00","0.00"
"04:49:59","34.2","33.4","97","29.78","215","0","0","0.00","0.00"
"04:54:59","34.1","33.3","97","29.78","215","0.1","1.2","0.00","0.00"
"04:59:57","34.1","33.3","97","29.79","215","0","0","0.00","0.00"
"05:04:57","34.1","33.3","97","29.79","215","0","1.2","0.00","0.00"
"05:09:56","34.3","33.7","97.6","29.79","215","0","1.2","0.00","0.00"
"05:14:57","34.3","33.6","97.5","29.79","215","0","0","0.00","0.00"
"05:19:58","34","33.2","97","29.79","215","0.7","2.4","0.00","0.00"
"05:24:59","33.8","33","97","29.79","215","0.3","2.4","0.00","0.00"
"05:29:56","33.9","33.1","97","29.80","215","0.4","2.4","0.00","0.00"
"05:34:57","34","33.2","97","29.80","191","0","0","0.00","0.00"
"05:39:55","34","33.2","97","29.80","192","0","0","0.00","0.00"
"05:44:56","34.1","33.5","97.6","29.80","192","0","0","0.00","0.00"
"05:49:57","34.2","33.6","97.8","29.80","194","0.8","3.6","0.00","0.00"
"05:54:57","34","33.2","97","29.80","194","0.2","2.4","0.00","0.00"
"05:59:57","33.9","33.1","97","29.81","218","1.6","4.8","0.00","0.00"
"06:04:58","33.6","32.8","97","29.81","257","0.8","4.6","0.00","0.00"
"06:09:57","33.5","32.7","97","29.81","257","0.7","3.6","0.00","0.00"
"06:14:59","33.7","32.9","97","29.82","257","1.5","3.6","0.00","0.00"
"06:19:59","33.7","32.9","97","29.82","257","0.5","2.4","0.00","0.00"
"06:24:56","33.6","32.8","97","29.82","257","0.7","3.6","0.00","0.00"
"06:29:56","33.6","32.8","97","29.83","257","1","4.8","0.00","0.00"
"06:34:57","33.8","33","97","29.83","228","2","6","0.00","0.00"
"06:39:57","34","33.2","97","29.83","23","1.2","4.8","0.00","0.00"
"06:44:57","34.1","33.4","97.3","29.83","47","1.3","4.6","0.00","0.00"
"06:49:58","33.9","33.1","97","29.83","47","1.2","2.4","0.00","0.00"
"06:54:59","33.8","33","97","29.83","27","0.9","3.6","0.00","0.00"
"06:59:59","34.1","33.5","97.6","29.84","346","0","2.3","0.00","0.00"
"07:04:59","34.5","34","98","29.84","328","1.3","4.8","0.00","0.00"
"07:09:57","34.8","34.3","98","29.84","319","1.2","3.6","0.00","0.00"
"07:14:59","34.7","34.2","98","29.86","258","1.4","4.8","0.00","0.00"
"07:19:59","34.6","34","97.5","29.86","251","0.7","3.6","0.00","0.00"
"07:24:59","34.7","33.9","97.2","29.86","250","0.3","2.4","0.00","0.00"
"07:29:58","34.8","34.3","97.9","29.86","250","0","0","0.00","0.00"
"07:34:59","34.9","34.4","98","29.86","250","0.3","3.6","0.00","0.00"
"07:39:56","34.8","34.3","98","29.86","266","3.2","4.8","0.00","0.00"
"07:44:58","34.7","34","97.5","29.87","281","1.9","3.6","0.00","0.00"
"07:49:59","35","34.5","98","29.87","310","0.9","4.8","0.00","0.00"
"07:54:57","35.3","34.8","98","29.87","321","0.3","3.6","0.00","0.00"
"07:59:57","35.4","34.9","98","29.88","321","0.3","1.2","0.00","0.00"
"08:04:57","35.1","34.4","97.4","29.88","300","0.7","3.6","0.00","0.00"
"08:09:56","34.9","34.1","97","29.88","292","0.4","2.4","0.00","0.00"
"08:14:57","34.9","34.2","97.4","29.89","290","1.1","3.6","0.00","0.00"
"08:19:58","36.1","35.6","98","29.89","296","2.2","4.8","0.00","0.00"
"08:24:58","37.3","36.8","98","29.89","304","1.9","6","0.00","0.00"
"08:29:56","38.6","38.1","98","29.90","9","1.9","6","0.00","0.00"
"08:34:56","39.4","38.9","98","29.90","5","1.8","3.6","0.00","0.00"
"08:39:59","42.3","41.9","98.4","29.90","3","2.7","6","0.00","0.00"
"08:44:57","43.5","42.9","97.6","29.90","355","1.8","4.6","0.00","0.00"
"08:49:56","45.1","43.3","93.3","29.90","355","1.4","3.5","0.00","0.00"
"08:54:56","46.4","43.8","90.7","29.90","352","1.7","4.8","0.00","0.00"
"08:59:55","48.1","44","86","29.91","334","1.9","6","0.00","0.00"
"09:04:56","49.2","44","82.1","29.91","335","2.5","10.8","0.00","0.00"
"09:09:58","50.1","43.7","78.6","29.91","327","4.1","16.1","0.00","0.00"
"09:14:58","51","43.4","75","29.92","329","3.8","12","0.00","0.00"
"09:19:56","51.4","43.3","74","29.92","337","5.5","15","0.00","0.00"
"09:24:56","51.8","42.8","71.2","29.92","326","5.8","12","0.00","0.00"
"09:29:58","52.1","43","70.8","29.93","320","3.9","12","0.00","0.00"
"09:34:59","52.4","42.9","69.8","29.93","320","3.9","11.5","0.00","0.00"
"09:39:56","52.8","43","69.3","29.93","301","3","7.2","0.00","0.00"
"09:44:56","53.2","43.2","68.8","29.93","308","2.3","16.8","0.00","0.00"
"09:49:56","53.3","42.6","67.1","29.93","329","5.1","15","0.00","0.00"
"09:54:56","53.4","42.6","66.7","29.93","288","3.4","9.2","0.00","0.00"
"09:59:57","53.8","42.7","66","29.94","342","4.7","15","0.00","0.00"
"10:04:58","53.5","42.3","65.7","29.94","331","5.3","13.2","0.00","0.00"
"10:09:57","53.6","42","64.7","29.94","335","6.1","15","0.00","0.00"
"10:14:56","53.7","42.2","64.9","29.94","329","4","15","0.00","0.00"
"10:19:56","54.3","42.5","64.3","29.94","351","5.8","17.3","0.00","0.00"
"10:24:57","54.1","42.3","64.4","29.94","339","5.6","12","0.00","0.00"
"10:29:58","54.4","42.2","63.3","29.94","327","5.8","14.4","0.00","0.00"
"10:34:57","54.4","42","62.7","29.94","304","4.9","15","0.00","0.00"
"10:39:59","54.9","42.4","62.6","29.94","334","4.6","8.4","0.00","0.00"
"10:44:56","55.2","42.8","63","29.95","336","4.9","13.2","0.00","0.00"
"10:49:57","54.9","41.8","61.3","29.95","324","7.5","18.4","0.00","0.00"
"10:54:58","54.6","41.6","61.5","29.95","321","9.1","20.4","0.00","0.00"
"10:59:59","54.8","41.8","61.5","29.95","342","8.8","18.4","0.00","0.00"
"11:04:56","54.9","41.8","61.2","29.94","345","9.3","19.6","0.00","0.00"
"11:09:58","55.2","42.1","61.1","29.94","286","6.3","15","0.00","0.00"
"11:14:56","55.5","42.3","60.9","29.94","289","7","15.6","0.00","0.00"
"11:19:57","55.9","42.1","59.7","29.94","300","5.8","16.1","0.00","0.00"
"11:24:59","56","42.2","59.5","29.94","299","4.7","12.7","0.00","0.00"
"11:29:59","56.2","41.8","58.6","29.95","321","5.7","13.2","0.00","0.00"
"11:34:59","56.3","42.2","59.1","29.95","305","5.2","12","0.00","0.00"
"11:39:57","55.9","41.7","58.7","29.95","336","7.6","20.7","0.00","0.00"
"11:44:57","56.4","42.5","59.5","29.95","293","5.4","12.7","0.00","0.00"
"11:49:58","57","42.6","58.7","29.94","296","6.4","19.2","0.00","0.00"
"11:54:59","56.7","42.5","59","29.94","326","6.7","19.6","0.00","0.00"
"11:59:57","57","42.4","58","29.94","349","6.5","16.1","0.00","0.00"
"12:04:57","56.5","41.6","57.5","29.94","313","8","17.3","0.00","0.00"
"12:09:56","56.7","41.6","57","29.94","308","6.3","16.1","0.00","0.00"
"12:13:54","56.9","41.6","56.5","29.94","333","8.2","16.8","0.00","0.00"
"12:19:58","56.6","41.4","56.6","29.94","317","7.3","15","0.00","0.00"
"12:24:59","56.9","42","57.5","29.94","293","5.8","15.6","0.00","0.00"
"12:29:56","57.2","42.1","57.1","29.94","320","7","15","0.00","0.00"
"12:34:55","57.1","41.6","56.3","29.93","334","9.6","17.3","0.00","0.00"
"12:39:57","56.8","41.6","57","29.93","341","8.5","17.3","0.00","0.00"
"12:44:58","57.6","42.5","57.1","29.93","324","5.8","16.1","0.00","0.00"
"12:49:59","57.8","42.2","56","29.93","343","8","18","0.00","0.00"
"12:54:56","57","41.6","56.3","29.93","340","9.1","18.4","0.00","0.00"
"12:59:57","56.7","41.2","56.1","29.93","338","9.8","17.3","0.00","0.00"
"13:04:57","56.8","41.4","56.3","29.93","334","7.6","18","0.00","0.00"
"13:09:56","57.2","41.6","56.2","29.93","325","6.6","18.4","0.00","0.00"
"13:14:58","57.4","41.8","55.9","29.93","324","6.6","15","0.00","0.00"
"13:19:59","57.4","41.7","55.8","29.93","334","8.2","18.4","0.00","0.00"
"13:24:57","57.5","41.5","55.1","29.93","335","6.7","19.6","0.00","0.00"
"13:29:58","57.4","41.9","56.2","29.93","344","8.6","19.6","0.00","0.00"
"13:34:59","57.4","41.9","56.1","29.92","338","8.3","15.6","0.00","0.00"
"13:39:57","57.6","42.1","56","29.92","332","6.8","18.4","0.00","0.00"
"13:44:58","57.3","41.6","55.8","29.93","337","8.3","16.8","0.00","0.00"
"13:49:56","57.6","42.1","56.4","29.93","320","5.6","16.8","0.00","0.00"
"13:54:57","57.8","41.9","55.5","29.93","337","6.2","13.2","0.00","0.00"
"13:59:58","57.7","42.1","56","29.93","331","4.1","9.6","0.00","0.00"
"14:04:59","58.1","42.2","55.5","29.93","328","3.8","13.2","0.00","0.00"
"14:09:58","57.8","41.9","55.3","29.93","315","5.4","15","0.00","0.00"
"14:14:56","56.7","41.3","56.2","29.93","329","4","10.8","0.00","0.00"
"14:19:58","56.4","41","56.3","29.93","333","6.6","16.1","0.00","0.00"
"14:24:59","56.1","41.1","57.1","29.93","332","5.8","13.2","0.00","0.00"
"14:29:59","56.6","41.3","56.6","29.94","348","4.3","13.2","0.00","0.00"
"14:34:56","56.6","41.2","56.2","29.94","19","3.4","11.5","0.00","0.00"
"14:39:58","57.3","41.7","56","29.94","328","3.2","7.2","0.00","0.00"
"14:44:57","57.3","41.4","55.3","29.95","338","4","8.4","0.00","0.00"
"14:49:58","56.8","41.4","56.4","29.95","317","3.3","9.6","0.00","0.00"
"14:54:59","57","41.7","56.4","29.95","320","2.2","7.2","0.00","0.00"
"14:59:58","57.6","41.7","55.5","29.95","343","3.2","7.2","0.00","0.00"
"15:04:59","57.2","41.3","55.5","29.95","322","2.9","9.6","0.00","0.00"
"15:09:57","56.5","41","56.2","29.95","342","3.3","9.6","0.00","0.00"
"15:14:59","56.7","41.2","56","29.96","339","5.9","12","0.00","0.00"
"15:19:59","56.3","40.7","55.7","29.96","343","6","15","0.00","0.00"
"15:24:56","55.9","40.3","55.8","29.96","319","6","15","0.00","0.00"
"15:29:56","56.1","40.6","55.9","29.97","335","3.6","13.2","0.00","0.00"
"15:34:57","56.2","40.5","55.6","29.97","326","5.7","12","0.00","0.00"
"15:39:58","55.8","40.4","56.2","29.97","323","5.5","16.1","0.00","0.00"
"15:44:58","55.9","40.5","56","29.98","334","5.7","10.8","0.00","0.00"
"15:49:59","55.4","40.2","56.5","29.98","299","4.6","10.4","0.00","0.00"
"15:54:59","55.4","40.3","56.8","29.98","333","4.5","9.6","0.00","0.00"
"15:59:56","55.6","40.5","56.8","29.99","311","1.4","4.8","0.00","0.00"
"16:04:56","55.4","40.2","56.7","29.99","312","3.4","7.2","0.00","0.00"
"16:09:58","55.3","40.3","57","29.99","344","3.6","8.4","0.00","0.00"
"16:14:59","54.9","39.8","56.7","30.01","323","3.7","8.4","0.00","0.00"
"16:19:59","54.6","39.9","57.7","30.01","350","3","6","0.00","0.00"
"16:24:56","54.2","39.9","58.3","30.01","344","3.7","12","0.00","0.00"
"16:29:56","53.7","39.8","59.3","30.01","347","3.3","10.8","0.00","0.00"
"16:34:48","53.1","39.6","60","30.01","346","4.9","13.2","0.00","0.00"
"16:39:56","52.6","39.5","60.9","30.01","341","2.7","12.7","0.00","0.00"
"16:44:57","52.3","39.2","61","30.02","349","3.8","9.6","0.00","0.00"
"16:49:58","52.1","39.4","61.7","30.02","337","1.8","5.8","0.00","0.00"
"16:54:59","51.8","39.2","62","30.02","275","2.1","7.2","0.00","0.00"
"16:59:56","51.6","39","62","30.02","3","2.3","4.8","0.00","0.00"
"17:04:57","51.3","39","62.6","30.02","345","3.4","9.6","0.00","0.00"
"17:09:59","51","38.8","63","30.02","343","1.8","7.2","0.00","0.00"
"17:14:57","50.7","38.9","63.7","30.03","349","1.3","6.9","0.00","0.00"
"17:19:59","50.3","38.7","64","30.03","348","0.3","2.4","0.00","0.00"
"17:24:57","50","38.7","65","30.03","342","0.8","3.6","0.00","0.00"
"17:29:58","49.8","38.5","65","30.04","342","0.3","1.2","0.00","0.00"
"17:34:58","49.5","38.5","65.6","30.04","343","0.7","4.8","0.00","0.00"
"17:39:59","49.2","38.3","66","30.04","346","3.5","8.4","0.00","0.00"
"17:44:57","49","38.3","66.6","30.05","348","3","6.9","0.00","0.00"
"17:49:58","48.6","38.2","67.4","30.05","355","3.1","6","0.00","0.00"
"17:54:56","48.2","38.1","68","30.05","335","2.1","4.6","0.00","0.00"
"17:59:57","48.1","38","68","30.05","342","3.6","8.4","0.00","0.00"
"18:04:58","48.2","38.1","67.8","30.05","352","1.9","7.2","0.00","0.00"
"18:09:57","48.3","37.8","67.1","30.05","348","0.9","4.6","0.00","0.00"
"18:14:59","48.1","37.8","67.6","30.06","348","1.2","2.4","0.00","0.00"
"18:19:56","47.7","37.8","68.2","30.06","24","1.6","4.8","0.00","0.00"
"18:24:57","47.4","37.7","69","30.06","65","0.6","2.4","0.00","0.00"
"18:29:59","47.2","37.5","69","30.06","8","1","4.8","0.00","0.00"
"18:34:57","47","37.5","69.4","30.06","344","2.5","4.8","0.00","0.00"
"18:39:58","46.7","37.4","70","30.06","341","1.5","4.6","0.00","0.00"
"18:44:56","46.5","37.2","70","30.06","352","2.3","7.2","0.00","0.00"
"18:49:57","46.4","37.1","70","30.06","348","2.4","6.9","0.00","0.00"
"18:54:59","46.4","37.1","70","30.06","339","0.6","2.4","0.00","0.00"
"18:59:56","46.4","37.1","70","30.06","343","0.6","4.8","0.00","0.00"
"19:04:57","46.2","37","70","30.06","344","0.3","3.6","0.00","0.00"
"19:09:56","46","36.9","70.3","30.06","344","2.3","3.6","0.00","0.00"
"19:14:57","45.9","37","71","30.07","345","2.9","6","0.00","0.00"
"19:19:58","45.8","36.9","71","30.07","328","2.6","9.6","0.00","0.00"
"19:24:59","45.7","36.8","71","30.07","321","0.9","2.4","0.00","0.00"
"19:29:57","45.4","36.7","71.4","30.07","317","1.2","4.8","0.00","0.00"
"19:34:58","45.2","36.7","72","30.07","319","1.8","4.6","0.00","0.00"
"19:39:56","45.1","36.6","72","30.07","337","1.7","4.8","0.00","0.00"
"19:44:58","44.9","36.4","72","30.07","347","1.7","7.2","0.00","0.00"
"19:49:59","44.8","36.6","72.6","30.07","337","2.6","6.9","0.00","0.00"
"19:54:56","44.8","36.6","72.8","30.07","321","2.4","5.8","0.00","0.00"
"19:59:58","44.7","36.6","73","30.07","332","2.3","4.8","0.00","0.00"
"20:04:58","44.7","36.6","73","30.07","324","2.3","4.8","0.00","0.00"
"20:09:57","44.6","36.5","73","30.07","335","1.5","3.6","0.00","0.00"
"20:14:58","44.5","36.4","73","30.08","342","1.2","4.8","0.00","0.00"
"20:19:57","44.3","36.3","73.5","30.08","348","0.6","2.4","0.00","0.00"
"20:24:58","44","36.2","74","30.08","348","1.1","2.4","0.00","0.00"
"20:29:56","43.7","36.2","74.6","30.08","340","1.4","4.8","0.00","0.00"
"20:34:57","43.6","36.2","75","30.08","339","0.7","3.6","0.00","0.00"
"20:39:58","43.4","36.1","75.2","30.08","339","0.3","3.5","0.00","0.00"
"20:44:56","43.3","35.9","75","30.08","339","0","0","0.00","0.00"
"20:49:57","43","35.8","75.7","30.07","339","0","0","0.00","0.00"
"20:54:59","42.7","35.8","76.2","30.07","339","0","0","0.00","0.00"
"20:59:56","42.6","35.8","76.7","30.07","339","0.3","3.6","0.00","0.00"
"21:04:57","42.5","35.8","77","30.07","339","0.2","2.4","0.00","0.00"
"21:09:56","42.2","35.5","76.8","30.07","339","0.1","1.2","0.00","0.00"
"21:14:57","41.9","35.3","77.4","30.07","339","0","0","0.00","0.00"
"21:19:58","41.6","35.2","78","30.06","339","0.5","4.8","0.00","0.00"
"21:24:59","41.5","35.4","78.8","30.06","339","0","2.3","0.00","0.00"
"21:29:56","41.6","35.6","79","30.06","339","0","1.2","0.00","0.00"
"21:34:57","41.6","35.6","79","30.05","339","0","0","0.00","0.00"
"21:39:58","41.5","35.5","79","30.05","339","0","0","0.00","0.00"
"21:44:56","41.3","35.3","79","30.07","339","0","0","0.00","0.00"
"21:49:57","40.9","34.9","79.2","30.07","339","0","0","0.00","0.00"
"21:54:58","40.5","35","80.5","30.07","339","0","0","0.00","0.00"
"21:59:56","40.4","35","81","30.08","339","0","0","0.00","0.00"
"22:04:56","40.5","35.1","81","30.08","339","0.2","2.4","0.00","0.00"
"22:09:59","40.5","35.1","81","30.08","339","0.2","2.3","0.00","0.00"
"22:14:56","40.9","35.5","81","30.08","339","0.2","1.2","0.00","0.00"
"22:19:57","41.1","35.4","80.1","30.08","339","0","1.2","0.00","0.00"
"22:24:58","41.1","35.4","80","30.08","339","0","1.2","0.00","0.00"
"22:29:58","41","35.3","80","30.08","338","1.2","2.4","0.00","0.00"
"22:34:59","41.2","35.5","80","30.08","338","0.5","2.3","0.00","0.00"
"22:39:56","41.4","35.7","80","30.08","339","0","0","0.00","0.00"
"22:44:57","41.4","35.7","80","30.08","339","0","0","0.00","0.00"
"22:49:58","41.3","35.8","80.4","30.08","339","0","0","0.00","0.00"
"22:54:58","41.2","35.8","81","30.08","339","0","0","0.00","0.00"
"22:59:59","41.2","35.8","81","30.08","339","0","1.2","0.00","0.00"
"23:04:59","41.4","36","81","30.06","339","0","1.2","0.00","0.00"
"23:09:58","41.4","36","81","30.06","338","0","0","0.00","0.00"
"23:14:59","41.4","36","81","30.06","339","0","0","0.00","0.00"
"23:19:56","41.6","36","80.3","30.06","339","0.4","2.4","0.00","0.00"
"23:24:56","41.9","36.2","79.8","30.06","33","0.7","2.4","0.00","0.00"
"23:29:56","42","36.3","79.8","30.06","34","0","0","0.00","0.00"
"23:34:57","42","36.2","79.7","30.05","28","0","0","0.00","0.00"
"23:39:58","42","36","79.1","30.05","355","0","0","0.00","0.00"
"23:44:56","42","36.3","80","30.06","355","0","0","0.00","0.00"
